Flushing, NY

9:21 PM EST on January 18, 2017 (GMT -0500)
La Guardia

Weather History for KLGA - August, 2013

Change the Weather History Date:

Thursday, August 15, 2013

  Actual Average Record
Temperature  
Mean Temperature 71 °F 77 °F  
Max Temperature 78 °F 84 °F 97 °F (1985)
Min Temperature 63 °F 69 °F 59 °F (1964)
Degree Days  
Heating Degree Days 0 0  
Month to date heating degree days 0 0  
Since 1 June heating degree days 4 16  
Since 1 July heating degree days 0 0  
Cooling Degree Days 6 12  
Month to date cooling degree days 154 184  
Year to date cooling degree days 1032 866  
Since 1 June cooling degree days 944 800  
Growing Degree Days 20 (Base 50)    
Moisture  
Dew Point 47 °F    
Average Humidity 47    
Maximum Humidity 65    
Minimum Humidity 29    
Precipitation  
Precipitation 0.00 in 0.13 in 0.98 in (1951)
Month to date precipitation 1.62 2.11  
Year to date precipitation 26.99 28.24  
Snow  
Snow 0.00 in 0.00 in - ()
Month to date snowfall 0.0 0.0  
Since 1 July snowfall 0.0 0.0  
Snow Depth 0.00 in    
Sea Level Pressure  
Sea Level Pressure 30.10 in    
Wind  
Wind Speed 7 mph (NW)    
Max Wind Speed 13 mph    
Max Gust Speed 18 mph    
Visibility 10 miles    
Events      
T = Trace of Precipitation, MM = Missing Value Source: NWS Daily Summary

Daily Weather History Graph

Daily Weather History Graph

Search for Another Location

Airport or City:

Trip Planner

Search our weather history database for the weather conditions in past years. The results will help you decide how hot, cold, wet, or windy it might be!

Date:

Astronomy

Aug. 15, 2013 Rise Set
Actual Time 6:05 AM EDT 7:53 PM EDT
Civil Twilight 5:36 AM EDT 8:22 PM EDT
Nautical Twilight 5:00 AM EDT 8:58 PM EDT
Astronomical Twilight 4:22 AM EDT 9:36 PM EDT
Moon 3:08 PM EDT (8/15) 12:12 AM EDT (8/15)
Length of Visible Light 14h 46m
Length of Day
13h 47m
Waxing Gibbous, 64% of the Moon is Illuminated
Aug 15
Waxing Gibbous
Aug 20
Full
Aug 28
Last Quarter
Sep 5
New
Sep 12
First Quarter

Hourly Weather History & Observations

Time (EDT) Temp. Dew Point Humidity Pressure Visibility Wind Dir Wind Speed Gust Speed Precip Events Conditions
12:51 AM 66.0 °F 48.9 °F 54% 30.05 in 10.0 mi NW 9.2 mph - N/A   Clear
1:51 AM 64.9 °F 48.9 °F 56% 30.06 in 10.0 mi NW 11.5 mph - N/A   Clear
2:51 AM 64.0 °F 48.9 °F 58% 30.07 in 10.0 mi NNW 8.1 mph - N/A   Clear
3:51 AM 64.0 °F 48.9 °F 58% 30.07 in 10.0 mi NNW 6.9 mph - N/A   Clear
4:51 AM 64.0 °F 48.9 °F 58% 30.08 in 10.0 mi WNW 4.6 mph - N/A   Clear
5:51 AM 63.0 °F 50.0 °F 63% 30.09 in 10.0 mi NW 10.4 mph - N/A   Partly Cloudy
6:51 AM 63.0 °F 50.0 °F 63% 30.11 in 10.0 mi NW 10.4 mph - N/A   Clear
7:51 AM 64.9 °F 48.9 °F 56% 30.12 in 10.0 mi NW 11.5 mph - N/A   Clear
8:51 AM 66.9 °F 48.9 °F 52% 30.13 in 10.0 mi NW 6.9 mph - N/A   Clear
9:51 AM 69.1 °F 48.9 °F 49% 30.13 in 10.0 mi NW 4.6 mph - N/A   Partly Cloudy
10:51 AM 72.0 °F 46.9 °F 41% 30.14 in 10.0 mi NNW 3.5 mph - N/A   Partly Cloudy
11:51 AM 73.9 °F 43.0 °F 33% 30.13 in 10.0 mi NNW 6.9 mph - N/A   Scattered Clouds
12:51 PM 75.0 °F 41.0 °F 29% 30.12 in 10.0 mi Variable 3.5 mph 18.4 mph N/A   Mostly Cloudy
1:51 PM 75.9 °F 44.1 °F 32% 30.10 in 10.0 mi WNW 10.4 mph - N/A   Mostly Cloudy
2:51 PM 77.0 °F 44.1 °F 31% 30.08 in 10.0 mi NNW 12.7 mph 18.4 mph N/A   Mostly Cloudy
3:51 PM 77.0 °F 43.0 °F 30% 30.07 in 10.0 mi NW 8.1 mph 16.1 mph N/A   Mostly Cloudy
4:51 PM 77.0 °F 48.0 °F 36% 30.07 in 10.0 mi NW 9.2 mph - N/A   Mostly Cloudy
5:51 PM 77.0 °F 46.0 °F 33% 30.06 in 10.0 mi WNW 10.4 mph - N/A   Mostly Cloudy
6:51 PM 75.9 °F 46.0 °F 35% 30.07 in 10.0 mi NW 6.9 mph - N/A   Mostly Cloudy
7:51 PM 73.9 °F 46.9 °F 38% 30.09 in 10.0 mi North 9.2 mph - N/A   Mostly Cloudy
8:51 PM 73.9 °F 48.0 °F 40% 30.12 in 10.0 mi NNW 5.8 mph - N/A   Mostly Cloudy
9:51 PM 73.9 °F 46.9 °F 38% 30.13 in 10.0 mi Calm Calm - N/A   Scattered Clouds
10:51 PM 73.0 °F 46.9 °F 39% 30.13 in 10.0 mi Calm Calm - N/A   Scattered Clouds
11:51 PM 70.0 °F 55.0 °F 59% 30.14 in 10.0 mi SW 8.1 mph - N/A   Scattered Clouds